Sheppard Air Force Base-Wichita Falls Municipal Airport
KSPS : now visible

Airfield :











YOU CAN JOIN US ON...

 
LOGIN :

Register | Disclaimer

   EN    FR    IT 

 









Legend :    VFR   Marginal VFR   IFR   Intensive IFR   Very Intensive IFR
Visi :
Ceiling :
>= 8 km
>= 3000ft
5 to 8 km
1000 to 3000 ft
1500m to 5 km
500 to 1000 ft
800 to 1500m
200 to 500 ft
< 800m
< 200 ft
Symbols :   Thunderstorms  Fog  Heavy snow  Heavy precipitations  Wind > 20 kt






- Airport Elevation : 1019 ft
- IATA code : SPS


KSPS - Sheppard Air Force Base-Wichita Falls Municipal

CURRENT METAR :
  • 220152Z 16005KT 10SM OVC075 12/01 A3014 RMK AO2 SLP206 T01220011

EXPIRED METARs :
  • 220052Z 15006KT 10SM SCT070 14/M01 A3014 RMK AO2 SLP206 T01391011
  • 212352Z 08007KT 10SM SCT080 15/M02 A3014 RMK AO2 SLP206 T01501017 10167 20133 58026

TAF KSPS
Valid from the 22 at 00:00 until the 23 at 00:00 UTC


212344Z 2200/2224 12005KT P6SM BKN080
FM221400 13014KT P6SM BKN080
FM222000 16013KT P6SM BKN030 OVC080
KZFW FIR / North America



MET'MAP, your aeronautical weather chart ! - Copyright ORBIFLY December 2007 - Disclaimer

ORBIFLY MET'MAP TEAM :

Programming & Development : Alexandra Zaïnal
Concept & original design : Baudouin d'Aumeries
Assistance for programming : Marc-Olivier Méhu
Technical & hardware support : Manuel Goepfert

Contact : metmap@orbifly.com




SOURCES & CREDITS :

   NOAA       Earth
Advisory